FIN5Z EFHK-EFKT

Flight info

Callsign FIN5Z
Flight time 1h 11m
Altitude 38000
Route TEVRU Y75 EVIMI
Aircraft E190/M-SDE3GILORVW/S

Departure

Time 2026-04-15 11:32
Airport Helsinki Vantaa Airport (EFHK)

Arrival

Time 2026-04-15 12:43
Airport Kittilä International Airport (EFKT)
Time Latitude Longitude Altitude Speed Heading
2026-04-15 10:58 60.32105 24.96751 187 ft 0 kts 137°
2026-04-15 11:26 60.32104 24.96754 187 ft 0 kts 137°
2026-04-15 11:26 60.32091 24.96776 187 ft 4 kts 137°
2026-04-15 11:26 60.32074 24.96835 187 ft 4 kts 82°
2026-04-15 11:27 60.32105 24.96871 187 ft 6 kts
2026-04-15 11:27 60.32153 24.96841 187 ft 8 kts 329°
2026-04-15 11:27 60.32210 24.96773 187 ft 10 kts 331°
2026-04-15 11:27 60.32234 24.96654 187 ft 11 kts 242°
2026-04-15 11:28 60.32180 24.96510 187 ft 14 kts 224°
2026-04-15 11:28 60.32109 24.96358 187 ft 15 kts 228°
2026-04-15 11:28 60.32035 24.96196 187 ft 15 kts 227°
2026-04-15 11:28 60.31960 24.96028 187 ft 16 kts 227°
2026-04-15 11:29 60.31881 24.95854 187 ft 16 kts 227°
2026-04-15 11:29 60.31799 24.95680 187 ft 17 kts 226°
2026-04-15 11:29 60.31716 24.95493 187 ft 17 kts 228°
2026-04-15 11:29 60.31633 24.95307 187 ft 18 kts 228°
2026-04-15 11:30 60.31544 24.95115 187 ft 18 kts 226°
2026-04-15 11:30 60.31456 24.94919 187 ft 19 kts 227°
2026-04-15 11:30 60.31403 24.94731 187 ft 12 kts 291°
2026-04-15 11:30 60.31466 24.94605 187 ft 12 kts 319°
2026-04-15 11:31 60.31541 24.94552 187 ft 12 kts 35°
2026-04-15 11:31 60.31622 24.94728 187 ft 37 kts 47°
2026-04-15 11:31 60.32010 24.95578 187 ft 124 kts 46°
2026-04-15 11:31 60.32722 24.97121 451 ft 168 kts 47°
2026-04-15 11:32 60.33548 24.98924 1306 ft 182 kts 50°
2026-04-15 11:32 60.34394 25.00801 2071 ft 195 kts 50°
2026-04-15 11:32 60.35352 25.02931 2765 ft 216 kts 49°
2026-04-15 11:32 60.36360 25.05167 3784 ft 220 kts 49°
2026-04-15 11:33 60.37436 25.07549 4459 ft 241 kts 48°
2026-04-15 11:33 60.38607 25.10145 5287 ft 258 kts 48°
2026-04-15 11:33 60.40011 25.12367 6212 ft 266 kts 20°
2026-04-15 11:33 60.41811 25.12866 7276 ft 270 kts
2026-04-15 11:34 60.43676 25.12926 8327 ft 272 kts
2026-04-15 11:34 60.45561 25.12990 9308 ft 276 kts
2026-04-15 11:34 60.47473 25.13057 10249 ft 281 kts
2026-04-15 11:34 60.49430 25.13126 11137 ft 287 kts
2026-04-15 11:35 60.51401 25.12365 11906 ft 298 kts 337°
2026-04-15 11:35 60.53310 25.10554 12492 ft 315 kts 334°
2026-04-15 11:35 60.55301 25.08625 13126 ft 328 kts 334°
2026-04-15 11:35 60.57381 25.06611 13928 ft 334 kts 334°
2026-04-15 11:36 60.59479 25.04579 14784 ft 337 kts 334°
2026-04-15 11:36 60.61588 25.02534 15627 ft 341 kts 334°
2026-04-15 11:36 60.63734 25.00449 16423 ft 347 kts 333°
2026-04-15 11:36 60.65903 24.98340 17173 ft 353 kts 333°
2026-04-15 11:37 60.68136 24.96166 17880 ft 360 kts 333°
2026-04-15 11:37 60.70395 24.93961 18548 ft 366 kts 333°
2026-04-15 11:37 60.72694 24.91715 19302 ft 371 kts 333°
2026-04-15 11:37 60.75024 24.89434 20047 ft 375 kts 333°
2026-04-15 11:38 60.77374 24.87131 20795 ft 378 kts 333°
2026-04-15 11:38 60.79729 24.84819 21505 ft 381 kts 333°
2026-04-15 11:38 60.82228 24.83027 22140 ft 388 kts 352°
2026-04-15 11:38 60.84903 24.83138 22760 ft 392 kts
2026-04-15 11:39 60.87623 24.83773 23393 ft 396 kts
2026-04-15 11:39 60.90356 24.84416 24013 ft 400 kts
2026-04-15 11:39 60.93109 24.85067 24644 ft 404 kts
2026-04-15 11:39 60.95915 24.85731 25255 ft 409 kts
2026-04-15 11:40 60.98711 24.86395 25858 ft 413 kts
2026-04-15 11:40 61.01594 24.87081 26485 ft 416 kts
2026-04-15 11:40 61.04464 24.87764 27082 ft 420 kts
2026-04-15 11:40 61.07383 24.88461 27653 ft 424 kts
2026-04-15 11:41 61.10289 24.89155 28203 ft 429 kts
2026-04-15 11:41 61.13309 24.89879 28797 ft 431 kts
2026-04-15 11:41 61.16305 24.90598 29354 ft 435 kts
2026-04-15 11:41 61.19310 24.91321 29894 ft 438 kts
2026-04-15 11:42 61.22318 24.92046 30448 ft 441 kts
2026-04-15 11:42 61.25355 24.92779 30945 ft 444 kts
2026-04-15 11:42 61.28430 24.93522 31390 ft 448 kts
2026-04-15 11:42 61.31537 24.94276 31817 ft 451 kts
2026-04-15 11:43 61.34663 24.95035 32234 ft 455 kts
2026-04-15 11:43 61.37768 24.95791 32718 ft 456 kts
2026-04-15 11:43 61.40933 24.96562 33266 ft 455 kts
2026-04-15 11:43 61.44064 24.97328 33833 ft 454 kts
2026-04-15 11:44 61.47152 24.98084 34364 ft 452 kts
2026-04-15 11:44 61.50297 24.98855 34792 ft 451 kts
2026-04-15 11:44 61.53373 24.99611 35121 ft 449 kts
2026-04-15 11:44 61.56462 25.00372 35431 ft 448 kts
2026-04-15 11:45 61.59555 25.01136 35730 ft 447 kts
2026-04-15 11:45 61.62611 25.01628 36017 ft 447 kts
2026-04-15 11:45 61.65731 25.01729 36349 ft 447 kts
2026-04-15 11:45 61.68838 25.01840 36672 ft 448 kts
2026-04-15 11:46 61.71916 25.01955 37000 ft 448 kts
2026-04-15 11:46 61.75036 25.02072 37331 ft 448 kts
2026-04-15 11:46 61.78138 25.02188 37649 ft 448 kts
2026-04-15 11:46 61.81233 25.02305 37948 ft 448 kts
2026-04-15 11:47 61.84331 25.02422 38233 ft 448 kts
2026-04-15 11:47 61.87426 25.02539 38321 ft 441 kts
2026-04-15 11:47 61.93629 25.02776 38360 ft 454 kts
2026-04-15 11:48 62.00021 25.03020 38364 ft 468 kts
2026-04-15 11:48 62.06567 25.03272 38359 ft 477 kts
2026-04-15 11:49 62.13168 25.03526 38361 ft 473 kts
2026-04-15 11:49 62.19771 25.03780 38359 ft 473 kts
2026-04-15 11:50 62.26336 25.04032 38352 ft 474 kts
2026-04-15 11:50 62.32895 25.04285 38354 ft 475 kts
2026-04-15 11:51 62.39470 25.04539 38357 ft 474 kts
2026-04-15 11:51 62.46045 25.04795 38371 ft 474 kts
2026-04-15 11:52 62.52639 25.05052 38369 ft 475 kts
2026-04-15 11:52 62.59194 25.05309 38360 ft 474 kts
2026-04-15 11:53 62.65749 25.05567 38358 ft 474 kts
2026-04-15 11:53 62.72308 25.05818 38352 ft 473 kts
2026-04-15 11:54 62.78838 25.06069 38358 ft 473 kts
2026-04-15 11:54 62.85434 25.06332 38367 ft 474 kts
2026-04-15 11:55 62.92010 25.06596 38369 ft 474 kts
2026-04-15 11:55 62.98570 25.06860 38371 ft 473 kts
2026-04-15 11:56 63.05104 25.07124 38372 ft 473 kts
2026-04-15 11:56 63.11650 25.07390 38370 ft 473 kts
2026-04-15 11:57 63.21495 25.07792 38374 ft 472 kts
2026-04-15 11:58 63.28016 25.08060 38369 ft 471 kts
2026-04-15 11:58 63.34585 25.08327 38369 ft 472 kts
2026-04-15 11:59 63.41126 25.08593 38373 ft 474 kts
2026-04-15 11:59 63.47675 25.08861 38369 ft 473 kts
2026-04-15 12:00 63.54230 25.09129 38372 ft 473 kts
2026-04-15 12:00 63.60760 25.09398 38372 ft 473 kts
2026-04-15 12:01 63.67316 25.09670 38370 ft 472 kts
2026-04-15 12:01 63.73814 25.09940 38374 ft 471 kts
2026-04-15 12:02 63.80341 25.10212 38377 ft 471 kts
2026-04-15 12:02 63.86846 25.10484 38377 ft 472 kts
2026-04-15 12:03 63.93404 25.10759 38376 ft 473 kts
2026-04-15 12:03 63.99952 25.11035 38380 ft 473 kts 360°
2026-04-15 12:04 64.06504 25.11312 38382 ft 473 kts 360°
2026-04-15 12:04 64.13088 25.11592 38374 ft 473 kts 360°
2026-04-15 12:05 64.19649 25.11872 38375 ft 474 kts 360°
2026-04-15 12:05 64.26202 25.12153 38376 ft 474 kts 360°
2026-04-15 12:06 64.32799 25.12438 38379 ft 474 kts 360°
2026-04-15 12:06 64.39320 25.12721 38377 ft 474 kts 360°
2026-04-15 12:07 64.45918 25.12898 38374 ft 473 kts 359°
2026-04-15 12:07 64.52425 25.12893 38375 ft 473 kts 359°
2026-04-15 12:08 64.58982 25.12896 38379 ft 473 kts 359°
2026-04-15 12:08 64.65552 25.12898 38381 ft 473 kts 359°
2026-04-15 12:09 64.72064 25.12900 38377 ft 474 kts 359°
2026-04-15 12:09 64.78622 25.12903 38378 ft 474 kts 359°
2026-04-15 12:10 64.85183 25.12905 38386 ft 475 kts 359°
2026-04-15 12:10 64.91766 25.12908 38381 ft 472 kts 359°
2026-04-15 12:11 64.98389 25.12911 38383 ft 473 kts 359°
2026-04-15 12:11 65.04946 25.12914 38385 ft 473 kts 359°
2026-04-15 12:12 65.11520 25.12916 38379 ft 472 kts 359°
2026-04-15 12:12 65.18079 25.12903 38374 ft 473 kts 358°
2026-04-15 12:13 65.24647 25.12873 38373 ft 473 kts 358°
2026-04-15 12:13 65.31181 25.12844 38374 ft 473 kts 358°
2026-04-15 12:14 65.37746 25.12815 38374 ft 474 kts 358°
2026-04-15 12:14 65.44290 25.12782 38363 ft 472 kts 358°
2026-04-15 12:15 65.50884 25.12747 38363 ft 471 kts 358°
2026-04-15 12:15 65.57386 25.12712 38359 ft 472 kts 358°
2026-04-15 12:16 65.63923 25.12677 38358 ft 471 kts 358°
2026-04-15 12:16 65.70466 25.12641 38358 ft 472 kts 358°
2026-04-15 12:17 65.77041 25.12605 38360 ft 472 kts 358°
2026-04-15 12:17 65.83553 25.12569 38360 ft 471 kts 358°
2026-04-15 12:18 65.90068 25.12533 38356 ft 468 kts 358°
2026-04-15 12:18 65.93284 25.12516 38348 ft 455 kts 358°
2026-04-15 12:18 65.96401 25.12499 38351 ft 450 kts 358°
2026-04-15 12:19 66.02733 25.12462 38192 ft 457 kts 358°
2026-04-15 12:19 66.05929 25.12444 37693 ft 458 kts 358°
2026-04-15 12:19 66.09077 25.12428 37201 ft 456 kts 358°
2026-04-15 12:19 66.12303 25.12273 36678 ft 452 kts 354°
2026-04-15 12:20 66.15424 25.11658 36186 ft 450 kts 354°
2026-04-15 12:20 66.18599 25.11085 35678 ft 452 kts 354°
2026-04-15 12:20 66.21759 25.10531 35186 ft 454 kts 354°
2026-04-15 12:20 66.24918 25.09980 34679 ft 456 kts 354°
2026-04-15 12:21 66.28066 25.09430 34179 ft 457 kts 354°
2026-04-15 12:21 66.31240 25.08876 33703 ft 462 kts 354°
2026-04-15 12:21 66.34453 25.08313 33186 ft 467 kts 353°
2026-04-15 12:21 66.37682 25.07746 32668 ft 471 kts 353°
2026-04-15 12:22 66.40918 25.07176 32148 ft 476 kts 353°
2026-04-15 12:22 66.44257 25.06582 31607 ft 481 kts 353°
2026-04-15 12:22 66.47604 25.05987 31034 ft 486 kts 353°
2026-04-15 12:22 66.50951 25.05390 30476 ft 480 kts 353°
2026-04-15 12:23 66.54225 25.04804 29949 ft 474 kts 353°
2026-04-15 12:23 66.57503 25.04216 29425 ft 470 kts 353°
2026-04-15 12:23 66.60729 25.03636 28910 ft 467 kts 352°
2026-04-15 12:23 66.63940 25.03056 28397 ft 465 kts 352°
2026-04-15 12:24 66.67150 25.02475 27879 ft 462 kts 353°
2026-04-15 12:24 66.70316 25.01900 27380 ft 460 kts 353°
2026-04-15 12:24 66.73491 25.01324 26873 ft 457 kts 353°
2026-04-15 12:24 66.76652 25.00748 26366 ft 455 kts 353°
2026-04-15 12:25 66.79789 25.00176 25867 ft 453 kts 352°
2026-04-15 12:25 66.82872 24.99611 25385 ft 450 kts 353°
2026-04-15 12:25 66.85984 24.99042 24884 ft 447 kts 352°
2026-04-15 12:25 66.89056 24.98476 24400 ft 444 kts 352°
2026-04-15 12:26 66.92113 24.97912 23914 ft 442 kts 352°
2026-04-15 12:26 66.95132 24.97354 23454 ft 436 kts 352°
2026-04-15 12:26 66.98119 24.96800 22968 ft 431 kts 352°
2026-04-15 12:26 67.01073 24.96251 22485 ft 424 kts 353°
2026-04-15 12:27 67.03989 24.95708 22026 ft 417 kts 353°
2026-04-15 12:27 67.06850 24.95174 21571 ft 411 kts 353°
2026-04-15 12:27 67.09641 24.94652 21122 ft 405 kts 353°
2026-04-15 12:27 67.12432 24.94128 20670 ft 400 kts 353°
2026-04-15 12:28 67.15167 24.93614 20234 ft 395 kts 353°
2026-04-15 12:28 67.17880 24.93102 19801 ft 390 kts 354°
2026-04-15 12:28 67.20560 24.92596 19371 ft 385 kts 354°
2026-04-15 12:28 67.23222 24.92092 18945 ft 379 kts 354°
2026-04-15 12:29 67.25779 24.91292 18537 ft 373 kts 345°
2026-04-15 12:29 67.28301 24.89674 18173 ft 371 kts 343°
2026-04-15 12:29 67.30780 24.88049 17763 ft 369 kts 343°
2026-04-15 12:29 67.33235 24.86436 17356 ft 365 kts 343°
2026-04-15 12:30 67.35686 24.84821 16952 ft 363 kts 343°
2026-04-15 12:30 67.38101 24.83228 16553 ft 360 kts 343°
2026-04-15 12:30 67.40506 24.81637 16161 ft 358 kts 343°
2026-04-15 12:30 67.42893 24.80056 15768 ft 356 kts 343°
2026-04-15 12:31 67.45310 24.78451 15369 ft 353 kts 343°
2026-04-15 12:31 67.47657 24.76889 14980 ft 350 kts 343°
2026-04-15 12:31 67.50006 24.75350 14588 ft 348 kts 345°
2026-04-15 12:31 67.52363 24.73881 14185 ft 345 kts 345°
2026-04-15 12:32 67.54693 24.72426 13836 ft 344 kts 345°
2026-04-15 12:32 67.57021 24.70970 13450 ft 342 kts 345°
2026-04-15 12:32 67.59317 24.69531 13059 ft 340 kts 345°
2026-04-15 12:32 67.61596 24.68100 12677 ft 338 kts 345°
2026-04-15 12:33 67.63859 24.66676 12353 ft 337 kts 345°
2026-04-15 12:33 67.66106 24.65260 11960 ft 331 kts 345°
2026-04-15 12:33 67.68337 24.63850 11571 ft 324 kts 345°
2026-04-15 12:33 67.70490 24.62488 11302 ft 318 kts 345°
2026-04-15 12:34 67.72591 24.61155 10949 ft 312 kts 344°
2026-04-15 12:34 67.74680 24.59828 10563 ft 302 kts 344°
2026-04-15 12:34 67.76693 24.58548 10263 ft 293 kts 344°
2026-04-15 12:34 67.78619 24.57320 9943 ft 286 kts 344°
2026-04-15 12:35 67.80521 24.56104 9642 ft 280 kts 344°
2026-04-15 12:35 67.82404 24.54898 9314 ft 277 kts 344°
2026-04-15 12:35 67.84269 24.53703 8996 ft 277 kts 345°
2026-04-15 12:35 67.86159 24.53683 8745 ft 274 kts 16°
2026-04-15 12:36 67.87725 24.56255 8207 ft 269 kts 49°
2026-04-15 12:36 67.88487 24.60496 7681 ft 251 kts 79°
2026-04-15 12:36 67.88881 24.64839 7348 ft 234 kts 80°
2026-04-15 12:36 67.89237 24.68914 7100 ft 224 kts 80°
2026-04-15 12:37 67.89584 24.72963 6896 ft 225 kts 80°
2026-04-15 12:37 67.89928 24.76981 6581 ft 226 kts 81°
2026-04-15 12:37 67.90283 24.81071 6244 ft 225 kts 80°
2026-04-15 12:37 67.90535 24.85058 5876 ft 220 kts 99°
2026-04-15 12:38 67.89915 24.88526 5543 ft 205 kts 143°
2026-04-15 12:38 67.88648 24.89709 5233 ft 197 kts 185°
2026-04-15 12:38 67.87430 24.88310 4911 ft 191 kts 218°
2026-04-15 12:38 67.86451 24.86047 4569 ft 188 kts 220°
2026-04-15 12:39 67.85474 24.83752 4165 ft 188 kts 220°
2026-04-15 12:39 67.84366 24.81944 3756 ft 188 kts 206°
2026-04-15 12:39 67.83209 24.80466 3345 ft 187 kts 204°
2026-04-15 12:39 67.82024 24.79047 2942 ft 187 kts 202°
2026-04-15 12:40 67.80805 24.78302 2672 ft 176 kts 174°
2026-04-15 12:40 67.79679 24.78810 2667 ft 156 kts 171°
2026-04-15 12:40 67.78619 24.79371 2375 ft 156 kts 169°
2026-04-15 12:40 67.77553 24.79981 2040 ft 158 kts 168°
2026-04-15 12:41 67.76492 24.80450 1759 ft 148 kts 164°
2026-04-15 12:41 67.75545 24.81126 1589 ft 141 kts 169°
2026-04-15 12:41 67.74597 24.81753 1373 ft 141 kts 167°
2026-04-15 12:41 67.73692 24.82346 1170 ft 127 kts 167°
2026-04-15 12:42 67.72863 24.82893 993 ft 119 kts 166°
2026-04-15 12:42 67.72066 24.83373 806 ft 117 kts 166°
2026-04-15 12:42 67.71285 24.83898 663 ft 118 kts 163°
2026-04-15 12:42 67.70564 24.84385 637 ft 87 kts 166°
2026-04-15 12:43 67.70099 24.84691 635 ft 55 kts 166°
2026-04-15 12:43 67.69839 24.84858 635 ft 12 kts 165°
2026-04-15 12:43 67.69808 24.85038 635 ft 12 kts 74°
2026-04-15 12:43 67.69827 24.85241 634 ft 7 kts 91°
2026-04-15 12:44 67.69797 24.85336 634 ft 7 kts 156°
2026-04-15 12:44 67.69749 24.85376 634 ft 7 kts 163°
2026-04-15 12:44 67.69697 24.85415 634 ft 7 kts 168°
2026-04-15 12:44 67.69642 24.85447 634 ft 8 kts 168°
2026-04-15 12:45 67.69585 24.85482 634 ft 8 kts 166°
2026-04-15 12:45 67.69544 24.85517 634 ft 5 kts 134°
2026-04-15 12:45 67.69550 24.85617 634 ft 4 kts 61°
2026-04-15 12:45 67.69547 24.85674 633 ft 2 kts 135°
2026-04-15 12:46 67.69544 24.85683 633 ft 0 kts 128°